Location: Oshawa
(43.9000°N, 78.8670°W)
Time: 23:32:59
(UTC-04:00)

Daily predictions for brighter satellites

Satellite Brightness Start Highest point End
(mag) Time Altitude Azimuth Time Altitude Azimuth Time Altitude Azimuth
Cosmos 1553 Rocket 4.1 21:26:24 10° N 21:32:51 74° E 21:39:10 10° SSE
Cosmos 1515 Rocket 3.9 21:29:28 10° N 21:33:50 52° ENE 21:38:09 10° SSE
Envisat 3.1 21:29:24 10° SSE 21:34:26 66° ENE 21:39:29 10° N
YAOGAN 6 3.8 21:34:50 10° SE 21:37:59 27° ENE 21:41:06 10° NNE
ARGOS 4.3 21:34:00 10° ESE 21:38:37 30° ENE 21:43:15 10° N
BREEZE-M DEB (TANK) 4.0 21:39:38 10° WNW 21:41:36 22° N 21:43:19 10° NE
Nimbus 7 Rocket 4.4 21:36:54 10° NNE 21:42:44 65° ESE 21:48:32 10° S
Cosmos 2292 4.1 21:40:04 10° N 21:43:08 73° E 21:46:11 10° SSE
Cosmos 2322 4.5 21:40:42 10° NNW 21:46:07 41° ENE 21:51:30 10° SE
Cosmos 405 3.9 21:42:54 10° N 21:46:17 35° ENE 21:49:38 10° SE
ERS-1 Rocket 3.6 21:42:04 10° S 21:47:00 57° W 21:51:59 10° NNW
Cosmos 1441 Rocket 3.2 21:45:04 10° S 21:48:49 64° E 21:52:33 10° NNE
Cosmos 1777 Rocket 4.3 21:44:52 10° S 21:49:55 49° ESE 21:54:59 10° NNE
Cosmos 2322 Rocket 2.5 21:48:37 10° NNW 21:54:11 67° WSW 21:59:44 10° SSE
Cosmos 1939 Rocket 3.3 21:51:09 10° S 21:55:04 60° W 21:58:58 10° NNW
H-2A R/B 3.7 21:51:42 10° ESE 21:55:44 22° ENE 21:59:50 10° NNE
SPOT 5 2.8 21:57:58 10° SSE 22:02:27 86° WSW 22:07:14 10° NNW
SL-16 R/B 2.6 21:57:08 10° NNW 22:02:44 62° WSW 22:08:17 10° S
Cosmos 371 Rocket 4.1 21:59:40 10° NNW 22:04:20 49° WSW 22:08:57 10° S
Meteor 2-2 Rocket 4.4 21:58:34 10° N 22:04:34 88° E 22:10:36 10° S
Cosmos 1980 Rocket 4.3 22:00:27 10° NW 22:04:43 22° W 22:08:59 10° SSW
Cosmos 1908 3.2 22:01:00 10° N 22:04:54 74° E 22:08:45 10° SSE
Cosmos 1437 3.7 22:02:32 12° SSE 22:05:09 30° E 22:08:06 10° NNE
CZ-2C R/B 3.0 22:04:27 10° WSW 22:05:13 12° W 22:05:59 10° WNW
Cosmos 1726 4.0 22:02:39 10° NNE 22:05:14 17° ENE 22:07:30 11° ESE
Cosmos 2360 Rocket 2.5 22:00:13 10° NNW 22:05:49 59° ENE 22:10:47 13° SE
Cosmos 2151 3.4 22:02:07 10° SSE 22:06:04 42° E 22:10:04 10° NNE
SPOT 1/Viking Rocket 3.7 22:02:26 11° SSE 22:07:21 59° ENE 22:12:25 10° N
Cosmos 1151 Rocket 3.0 22:03:59 10° N 22:08:17 72° E 22:12:25 11° SSE
Cosmos 1680 Rocket 3.7 22:10:21 10° NNW 22:15:33 61° ENE 22:19:50 15° SE
Cosmos 923 Rocket 4.0 22:13:10 10° NNW 22:18:25 83° ENE 22:22:50 14° SSE
H-2A R/B 3.7 22:16:12 10° SSW 22:20:15 32° W 22:24:21 10° NNW
Cosmos 1707 Rocket 4.3 22:16:21 10° N 22:20:23 36° ENE 22:23:16 17° SE
Cosmos 1437 Rocket 3.4 22:20:43 10° NNW 22:24:25 51° W 22:28:07 10° S
Cosmos 1674 3.0 22:27:17 10° SSW 22:31:05 66° W 22:34:57 10° N
Cosmos 1833 4.2 22:26:14 10° SSW 22:31:57 81° ESE 22:37:39 10° NNE
Cosmos 2227 Rocket 4.1 22:31:10 10° ESE 22:32:07 11° E 22:33:31 10° E
Cosmos 2333 Rocket 3.9 22:28:06 10° N 22:32:33 22° NE 22:36:58 10° E
Aureole 3 4.5 22:25:33 10° S 22:32:35 75° E 22:38:16 10° NNE
CZ-4B R/B 3.6 22:28:31 10° NNE 22:33:50 88° ESE 22:39:04 10° SSW
CZ-4C R/B 3.4 22:34:28 22° SE 22:36:26 51° ENE 22:39:49 10° N
Cosmos 1300 3.0 22:33:22 10° N 22:37:09 52° E 22:39:16 23° SSE
SL-08 RB Rocket 3.6 22:36:33 19° SSE 22:39:48 82° ENE 22:44:18 10° NNW
Cosmos 2058 2.9 22:39:47 18° S 22:42:47 67° E 22:46:52 10° NNE
Cosmos 1328 3.8 22:40:37 12° S 22:44:11 83° W 22:48:11 10° N
COSMOS 2428 3.0 22:39:01 10° NNW 22:44:38 59° ENE 22:48:24 21° SE
Cosmos 1626 4.3 22:44:32 12° E 22:44:57 12° E 22:46:35 10° ENE
Meteor 1-4 Rocket 3.6 22:43:35 10° N 22:47:03 33° ENE 22:48:33 24° ESE
USA 229 DEB 4.0 22:42:31 10° SW 22:49:26 75° NW 22:56:29 10° NE
USA 229 3.9 22:42:36 10° SW 22:49:31 76° NW 22:56:34 10° NE
Cosmos 2242 Rocket 4.1 22:47:29 10° N 22:51:48 47° ENE 22:54:01 25° SE
Cosmos 304 Rocket 4.1 22:47:06 10° NNW 22:51:52 61° WSW 22:55:07 20° S
DELTA 2 DEB (DPAF) 4.1 22:49:23 22° SSE 22:52:14 86° ENE 22:56:45 10° NNW
SL-23 DEB 3.7 22:48:51 10° WNW 22:53:37 70° SW 22:55:10 31° SE
Landsat 7 3.8 22:51:46 23° SSE 22:54:47 83° ENE 22:59:35 10° NNW
USA 32 4.3 22:50:13 10° N 22:55:25 56° E 22:58:24 25° SSE
Cosmos 2297 Rocket 4.0 22:59:14 13° ESE 22:59:49 13° E 23:02:23 10° ENE
Spot 4 4.2 22:57:34 25° SE 23:00:10 53° ENE 23:04:54 10° N
Cosmos 1455 3.7 22:57:09 10° NNE 23:00:13 23° ENE 23:01:18 20° E
IGS 5A 3.6 23:00:13 29° SE 23:02:10 61° ENE 23:06:18 10° N
SeaSat 1 3.7 23:01:34 16° ESE 23:04:45 31° NE 23:09:04 10° N
Cosmos 2237 4.2 23:00:37 10° NNW 23:06:23 90° ESE 23:09:42 26° SSE
Cosmos 2315 Rocket 4.5 23:03:01 10° NNW 23:09:04 57° W 23:14:09 15° SSW
NOSS 3-1 (A) 3.7 23:05:11 19° S 23:09:05 45° ESE 23:15:13 10° NE
Cosmos 2219 Rocket 2.7 23:04:07 10° NNW 23:09:32 47° ENE 23:12:41 23° ESE
Terra 1.8 23:08:07 28° SSE 23:10:39 84° ENE 23:15:27 10° NNW
DELTA 2 R/B (1) 4.0 23:08:12 10° W 23:13:24 42° SSW 23:15:33 29° SSE
Cosmos 292 Rocket 4.0 23:09:47 10° NNW 23:14:30 57° ENE 23:16:37 31° SE
SL-14 R/B 3.3 23:13:39 26° SSW 23:15:49 77° W 23:19:49 10° N
Meteor 1-27 4.5 23:10:34 10° NNW 23:16:15 66° W 23:19:54 22° S
Cosmos 1703 3.3 23:16:03 38° SSE 23:17:17 60° E 23:21:09 10° NNE
Cosmos 1862 Rocket 4.2 23:14:21 10° N 23:18:29 40° ENE 23:19:53 31° ESE
ARGOS 4.2 23:14:35 15° SSW 23:18:42 40° W 23:23:47 10° NNW
Cosmos 2298 Rocket 4.0 23:15:36 20° SSW 23:19:21 77° ESE 23:24:42 10° NNE
Cosmos 1980 4.4 23:15:49 10° NNW 23:21:13 43° ENE 23:24:17 23° ESE
CARTOSAT-1 3.7 23:20:21 31° S 23:22:20 69° WSW 23:26:40 10° NNW
GEOS 3 Rocket 4.5 23:19:08 18° ESE 23:22:40 42° NE 23:27:33 10° NNW
Cosmos 2219 3.4 23:17:59 10° SSW 23:23:44 74° WNW 23:29:31 10° NNE
Cosmos 1271 Rocket 2.6 23:21:29 10° N 23:25:18 88° W 23:26:28 44° S
Cosmos 1346 4.1 23:28:52 32° ENE 23:28:52 32° ENE 23:31:14 10° NNE
Cosmos 2333 4.2 23:22:41 10° NNW 23:28:26 82° WSW 23:31:14 32° SSE
Cosmos 1633 Rocket 3.3 23:26:23 24° SSW 23:28:55 66° W 23:33:17 10° N
Sich 1 3.5 23:28:03 22° SSW 23:30:46 60° W 23:35:08 10° N
ATLAS 2AS CENTAUR R/B 3.7 23:29:35 26° SE 23:32:01 32° ESE 23:38:49 10° NE
Spot 2 4.4 23:29:19 10° NNE 23:34:30 89° WNW 23:37:17 27° SSW
H-2A R/B 2.6 23:31:47 25° SSW 23:34:43 55° W 23:40:03 10° NNW
Cosmos 2237 Rocket 2.7 23:29:27 10° NNW 23:35:02 51° ENE 23:37:50 28° ESE
Cosmos 1937 Rocket 3.4 23:34:58 32° S 23:37:24 69° ESE 23:42:36 10° NNE
Cosmos 2082 4.3 23:36:11 32° SE 23:37:45 39° ESE 23:43:02 10° NE
Cosmos 1726 3.5 23:37:19 10° NNW 23:40:42 32° W 23:42:11 24° SW
Iridium 2 4.1 23:42:31 36° SW 23:43:48 58° W 23:47:37 10° N
Nadezhda 1 Rocket 3.9 23:38:33 10° N 23:44:39 85° W 23:47:39 32° S
ALOS 2 4.2 23:45:44 20° E 23:47:10 24° ENE 23:50:40 10° NNE
Cosmos 2360 Rocket 4.0 23:45:11 10° NW 23:49:20 21° W 23:52:34 13° SW
